GW2490 Weather Reports


Display with metric or nautical units.
time (UTC)temp
F
wind
direction
speed
MPH
gust
MPH
rain 1hr
in
rain 24hr
in
rain mn
in
humidity
%
barometer
mb
20260506035053 0 0.0 0.0 0.00 0.00 0.00
20260506034958 55 110 8.0 9.0 0.00 0.00 0.00 83 1014.5
20260506034553 0 0.0 0.0 0.00 0.00 0.00
20260506034458 55 116 5.0 7.0 0.00 0.00 0.00 82 1014.5
20260506034052 0 0.0 0.0 0.00 0.00 0.00
20260506033958 55 113 5.0 9.0 0.00 0.00 0.00 82 1014.4
20260506033457 55 110 8.0 9.0 0.00 0.00 0.00 82 1014.4
20260506033053 0 0.0 0.0 0.00 0.00 0.00
20260506032957 55 103 9.0 12.0 0.00 0.00 0.00 82 1014.4
20260506032553 0 0.0 0.0 0.00 0.00 0.00
20260506032457 55 96 8.0 13.0 0.00 0.00 0.00 82 1014.4
20260506031957 55 109 7.0 9.0 0.00 0.00 0.00 82 1014.5
20260506031550 0 0.0 0.0 0.00 0.00 0.00
20260506031457 55 103 9.0 13.0 0.00 0.00 0.00 81 1014.4
20260506031050 0 0.0 0.0 0.00 0.00 0.00
20260506030957 56 114 9.0 12.0 0.00 0.00 0.00 81 1014.3
20260506030457 56 101 9.0 12.0 0.00 0.00 0.00 81 1014.2
20260506030050 0 0.0 0.0 0.00 0.00 0.00
20260506025957 56 107 8.0 12.0 0.00 0.00 0.00 80 1014.1
20260506025457 56 109 8.0 9.0 0.00 0.00 0.00 80 1014.1
20260506025051 0 0.0 0.0 0.00 0.00 0.00
20260506024957 56 105 9.0 11.0 0.00 0.00 0.00 80 1014.1
20260506024457 57 110 7.0 9.0 0.00 0.00 0.00 79 1014.2
20260506024051 0 0.0 0.0 0.00 0.00 0.00
20260506023957 57 103 9.0 11.0 0.00 0.00 0.00 79 1014.0
20260506023552 0 0.0 0.0 0.00 0.00 0.00
20260506023500 57 110 8.0 10.0 0.00 0.00 0.00 79 1014.1
20260506023051 0 0.0 0.0 0.00 0.00 0.00
20260506022958 57 117 7.0 9.0 0.00 0.00 0.00 79 1014.1
20260506022553 0 0.0 0.0 0.00 0.00 0.00
20260506022457 57 107 8.0 9.0 0.00 0.00 0.00 79 1014.1
20260506022051 0 0.0 0.0 0.00 0.00 0.00
20260506021957 57 107 8.0 10.0 0.00 0.00 0.00 78 1014.2
20260506021549 0 0.0 0.0 0.00 0.00 0.00
20260506021457 57 115 7.0 9.0 0.00 0.00 0.00 78 1014.3
20260506021048 0 0.0 0.0 0.00 0.00 0.00
20260506020957 58 114 6.0 8.0 0.00 0.00 0.00 78 1014.3
20260506020549 0 0.0 0.0 0.00 0.00 0.00
20260506020458 58 112 7.0 9.0 0.00 0.00 0.00 78 1014.2
20260506020048 0 0.0 0.0 0.00 0.00 0.00
20260506015957 58 112 7.0 9.0 0.00 0.00 0.00 78 1014.2
20260506015459 58 119 6.0 8.0 0.00 0.00 0.00 78 1014.2
20260506015049 0 0.0 0.0 0.00 0.00 0.00
20260506014957 58 130 5.0 7.0 0.00 0.00 0.00 78 1014.3
20260506014549 0 0.0 0.0 0.00 0.00 0.00
20260506014457 58 126 6.0 8.0 0.00 0.00 0.00 77 1014.3
20260506014049 0 0.0 0.0 0.00 0.00 0.00
20260506013957 58 123 5.0 6.0 0.00 0.00 0.00 77 1014.3
20260506013458 58 113 6.0 10.0 0.00 0.00 0.00 78 1014.3
20260506013049 0 0.0 0.0 0.00 0.00 0.00
20260506012957 58 131 6.0 7.0 0.00 0.00 0.00 77 1014.3
20260506012546 0 0.0 0.0 0.00 0.00 0.00
20260506012459 58 130 5.0 6.0 0.00 0.00 0.00 78 1014.4
20260506012046 0 0.0 0.0 0.00 0.00 0.00
20260506011957 58 119 6.0 8.0 0.00 0.00 0.00 78 1014.4
20260506011546 0 0.0 0.0 0.00 0.00 0.00
20260506011458 58 137 4.0 6.0 0.00 0.00 0.00 78 1014.4
20260506010957 58 120 5.0 7.0 0.00 0.00 0.00 77 1014.4
20260506010458 58 121 6.0 7.0 0.00 0.00 0.00 77 1014.4
20260506010047 0 0.0 0.0 0.00 0.00 0.00
20260506005958 58 126 5.0 7.0 0.00 0.00 0.00 77 1014.4
20260506005547 0 0.0 0.0 0.00 0.00 0.00
20260506005457 59 121 6.0 7.0 0.00 0.00 0.00 76 1014.4
20260506004959 59 127 5.0 7.0 0.00 0.00 0.00 77 1014.4
20260506004547 0 0.0 0.0 0.00 0.00 0.00
20260506004457 59 118 6.0 8.0 0.00 0.00 0.00 75 1014.4
20260506004047 0 0.0 0.0 0.00 0.00 0.00
20260506003957 59 137 4.0 6.0 0.00 0.00 0.00 77 1014.4
20260506003547 0 0.0 0.0 0.00 0.00 0.00
20260506003457 59 128 6.0 8.0 0.00 0.00 0.00 75 1014.5
20260506003047 0 0.0 0.0 0.00 0.00 0.00
20260506002957 60 139 5.0 8.0 0.00 0.00 0.00 75 1014.5
20260506002544 0 0.0 0.0 0.00 0.00 0.00
20260506002457 59 134 4.0 5.0 0.00 0.00 0.00 76 1014.5
20260506002045 0 0.0 0.0 0.00 0.00 0.00
20260506001958 60 125 5.0 9.0 0.00 0.00 0.00 75 1014.5
20260506001541 0 0.0 0.0 0.00 0.00 0.00
20260506001457 60 138 6.0 8.0 0.00 0.00 0.00 74 1014.6
20260506001041 0 0.0 0.0 0.00 0.00 0.00
20260506000957 59 155 5.0 7.0 0.00 0.00 0.00 75 1014.7
20260506000457 59 149 5.0 8.0 0.00 0.00 0.00 76 1014.7
20260506000042 0 0.0 0.0 0.00 0.00 0.00
20260505235957 59 143 5.0 6.0 0.00 0.00 0.00 78 1014.7
20260505235457 59 136 5.0 7.0 0.00 0.00 0.00 76 1014.8
20260505235041 0 0.0 0.0 0.00 0.00 0.00
20260505234957 60 161 5.0 7.0 0.00 0.00 0.00 76 1014.8
20260505234541 0 0.0 0.0 0.00 0.00 0.00
20260505234457 60 133 5.0 6.0 0.00 0.00 0.00 75 1014.9
20260505234042 0 0.0 0.0 0.00 0.00 0.00
20260505233957 60 142 5.0 7.0 0.00 0.00 0.00 76 1014.8
20260505233541 0 0.0 0.0 0.00 0.00 0.00
20260505233458 59 158 6.0 9.0 0.00 0.00 0.00 76 1014.9
20260505233043 0 0.0 0.0 0.00 0.00 0.00
20260505232958 59 136 5.0 6.0 0.00 0.00 0.00 77 1015.0
20260505232458 59 144 4.0 6.0 0.00 0.00 0.00 78 1015.0
20260505232038 0 0.0 0.0 0.00 0.00 0.00
20260505231957 59 135 5.0 7.0 0.00 0.00 0.00 78 1015.0
20260505231536 0 0.0 0.0 0.00 0.00 0.00
20260505231458 59 147 6.0 9.0 0.00 0.00 0.00 78 1015.1
20260505231037 0 0.0 0.0 0.00 0.00 0.00
20260505230957 59 163 7.0 9.0 0.00 0.00 0.00 77 1015.1
20260505230536 0 0.0 0.0 0.00 0.00 0.00
20260505230457 59 148 6.0 9.0 0.00 0.00 0.00 78 1015.1
20260505230037 0 0.0 0.0 0.00 0.00 0.00
20260505225958 59 129 6.0 8.0 0.00 0.00 0.00 78 1015.1
20260505225536 0 0.0 0.0 0.00 0.00 0.00
20260505225458 59 125 5.0 7.0 0.00 0.00 0.00 78 1015.1
20260505225037 0 0.0 0.0 0.00 0.00 0.00
20260505224957 59 143 4.0 7.0 0.00 0.00 0.00 79 1015.1
20260505224537 0 0.0 0.0 0.00 0.00 0.00
20260505224458 59 131 5.0 7.0 0.00 0.00 0.00 77 1015.1
20260505224038 0 0.0 0.0 0.00 0.00 0.00
20260505223958 59 123 5.0 7.0 0.00 0.00 0.00 77 1015.2
20260505223537 0 0.0 0.0 0.00 0.00 0.00
20260505223457 58 128 5.0 7.0 0.00 0.00 0.00 79 1015.2
20260505223037 0 0.0 0.0 0.00 0.00 0.00
20260505222957 58 116 6.0 9.0 0.00 0.00 0.00 79 1015.2
20260505222457 58 146 6.0 9.0 0.00 0.00 0.00 80 1015.3
20260505222034 0 0.0 0.0 0.00 0.00 0.00
20260505221958 58 126 6.0 9.0 0.00 0.00 0.00 78 1015.3
20260505221532 0 0.0 0.0 0.00 0.00 0.00
20260505221457 58 131 5.0 8.0 0.00 0.00 0.00 79 1015.3
20260505221031 0 0.0 0.0 0.00 0.00 0.00
20260505220957 58 138 5.0 7.0 0.00 0.00 0.00 80 1015.4
20260505220531 0 0.0 0.0 0.00 0.00 0.00
20260505220504 58 127 5.0 7.0 0.00 0.00 0.00 79 1015.3
20260505215957 58 149 7.0 9.0 0.00 0.00 0.00 81 1015.4
20260505215532 0 0.0 0.0 0.00 0.00 0.00
20260505215457 58 144 6.0 8.0 0.00 0.00 0.00 80 1015.4
20260505214957 59 131 5.0 9.0 0.00 0.00 0.00 79 1015.4
20260505214532 0 0.0 0.0 0.00 0.00 0.00
20260505214457 58 124 4.0 7.0 0.00 0.00 0.00 80 1015.4
20260505214032 0 0.0 0.0 0.00 0.00 0.00
20260505213957 58 127 5.0 8.0 0.00 0.00 0.00 80 1015.5
20260505213537 0 0.0 0.0 0.00 0.00 0.00
20260505213458 57 130 5.0 7.0 0.00 0.00 0.00 81 1015.5
20260505213032 0 0.0 0.0 0.00 0.00 0.00
20260505212958 58 128 5.0 7.0 0.00 0.00 0.00 81 1015.5
20260505212457 57 147 6.0 9.0 0.00 0.00 0.00 82 1015.6
20260505212030 0 0.0 0.0 0.00 0.00 0.00
20260505211957 57 144 4.0 6.0 0.00 0.00 0.00 82 1015.6
20260505211528 0 0.0 0.0 0.00 0.00 0.00
20260505211457 56 116 5.0 8.0 0.00 0.00 0.00 82 1015.6
20260505211028 0 0.0 0.0 0.00 0.00 0.00
20260505210957 56 114 6.0 10.0 0.00 0.00 0.00 83 1015.5
20260505210527 0 0.0 0.0 0.00 0.00 0.00
20260505210458 57 131 4.0 6.0 0.00 0.00 0.00 83 1015.6
20260505210028 0 0.0 0.0 0.00 0.00 0.00
20260505205958 56 132 6.0 9.0 0.00 0.00 0.00 82 1015.6
20260505205528 0 0.0 0.0 0.00 0.00 0.00
20260505205457 56 149 5.0 8.0 0.00 0.00 0.00 84 1015.7
20260505205028 0 0.0 0.0 0.00 0.00 0.00
20260505204957 55 143 5.0 8.0 0.00 0.00 0.00 85 1015.7
20260505204529 0 0.0 0.0 0.00 0.00 0.00
20260505204457 55 128 4.0 6.0 0.00 0.00 0.00 86 1015.8
20260505204028 0 0.0 0.0 0.00 0.00 0.00
20260505203957 55 124 5.0 6.0 0.00 0.00 0.00 86 1015.9
20260505203528 0 0.0 0.0 0.00 0.00 0.00
20260505203457 55 130 5.0 8.0 0.00 0.00 0.00 87 1015.9
20260505203027 0 0.0 0.0 0.00 0.00 0.00
20260505202957 55 144 6.0 8.0 0.00 0.00 0.00 85 1015.8
20260505202458 55 130 4.0 6.0 0.00 0.00 0.00 87 1015.8
20260505201957 54 139 4.0 5.0 0.00 0.00 0.00 87 1015.8
20260505201524 0 0.0 0.0 0.00 0.00 0.00
20260505201458 54 131 6.0 9.0 0.00 0.00 0.00 87 1015.7
20260505201024 0 0.0 0.0 0.00 0.00 0.00
20260505200957 54 132 4.0 6.0 0.00 0.00 0.00 87 1015.7
20260505200524 0 0.0 0.0 0.00 0.00 0.00
20260505200458 54 142 4.0 6.0 0.00 0.00 0.00 88 1015.7
20260505200025 0 0.0 0.0 0.00 0.00 0.00
20260505195957 53 124 5.0 6.0 0.00 0.00 0.00 88 1015.7
20260505195525 0 0.0 0.0 0.00 0.00 0.00
20260505195458 53 128 5.0 8.0 0.00 0.00 0.00 89 1015.7
20260505194958 53 124 4.0 6.0 0.00 0.00 0.00 90 1015.7
20260505194525 0 0.0 0.0 0.00 0.00 0.00
20260505194457 53 125 4.0 6.0 0.00 0.00 0.00 90 1015.8
20260505193957 53 124 5.0 7.0 0.00 0.00 0.00 90 1015.8
20260505193525 0 0.0 0.0 0.00 0.00 0.00
20260505193459 52 125 4.0 4.0 0.00 0.00 0.00 92 1015.8
20260505193026 0 0.0 0.0 0.00 0.00 0.00
20260505193002 52 119 4.0 5.0 0.00 0.00 0.00 91 1015.8
20260505192458 52 123 5.0 7.0 0.00 0.00 0.00 92 1015.8
20260505192022 0 0.0 0.0 0.00 0.00 0.00
20260505191957 52 127 5.0 6.0 0.00 0.00 0.00 93 1015.8
20260505191519 0 0.0 0.0 0.00 0.00 0.00
20260505191458 52 123 5.0 7.0 0.00 0.00 0.00 93 1015.7
20260505190957 52 118 6.0 9.0 0.00 0.00 0.00 93 1015.7
20260505190519 0 0.0 0.0 0.00 0.00 0.00
20260505190458 52 126 4.0 6.0 0.00 0.00 0.00 93 1015.7
20260505185957 51 124 4.0 5.0 0.00 0.00 0.00 94 1015.7
20260505185518 0 0.0 0.0 0.00 0.00 0.00
20260505185458 52 129 4.0 6.0 0.00 0.00 0.00 94 1015.7
20260505185019 0 0.0 0.0 0.00 0.00 0.00
20260505184957 52 115 6.0 8.0 0.00 0.00 0.00 93 1015.7
20260505184518 0 0.0 0.0 0.00 0.00 0.00
20260505184458 51 131 4.0 7.0 0.00 0.00 0.00 94 1015.7
20260505184019 0 0.0 0.0 0.00 0.00 0.00
20260505184000 51 118 4.0 6.0 0.00 0.00 0.00 94 1015.7
20260505183518 0 0.0 0.0 0.00 0.00 0.00
20260505183457 51 106 7.0 8.0 0.00 0.00 0.00 94 1015.7
20260505183019 0 0.0 0.0 0.00 0.00 0.00
20260505182957 51 116 6.0 8.0 0.00 0.00 0.00 94 1015.7
20260505182517 0 0.0 0.0 0.00 0.00 0.00
20260505182458 51 124 5.0 6.0 0.00 0.00 0.00 94 1015.7
20260505182018 0 0.0 0.0 0.00 0.00 0.00
20260505181958 51 125 6.0 7.0 0.00 0.00 0.00 93 1015.6
20260505181518 0 0.0 0.0 0.00 0.00 0.00
20260505181457 51 129 4.0 6.0 0.00 0.00 0.00 94 1015.5
20260505181018 0 0.0 0.0 0.00 0.00 0.00
20260505180957 51 134 4.0 6.0 0.00 0.00 0.00 94 1015.5
20260505180518 0 0.0 0.0 0.00 0.00 0.00
20260505180501 51 122 5.0 8.0 0.00 0.00 0.00 94 1015.5
20260505180017 0 0.0 0.0 0.00 0.00 0.00
20260505175958 51 114 6.0 8.0 0.00 0.00 0.00 94 1015.5
20260505175518 0 0.0 0.0 0.00 0.00 0.00
20260505175457 51 125 4.0 5.0 0.00 0.00 0.00 95 1015.6
20260505175017 0 0.0 0.0 0.00 0.00 0.00
20260505174957 51 131 5.0 8.0 0.00 0.00 0.00 95 1015.6
20260505174518 0 0.0 0.0 0.00 0.00 0.00
20260505174458 51 129 5.0 6.0 0.00 0.00 0.00 95 1015.5
20260505174018 0 0.0 0.0 0.00 0.00 0.00
20260505173957 51 126 4.0 5.0 0.00 0.00 0.00 95 1015.5
20260505173518 0 0.0 0.0 0.00 0.00 0.00
20260505173457 51 119 4.0 7.0 0.00 0.00 0.00 95 1015.5
20260505173018 0 0.0 0.0 0.00 0.00 0.00
20260505172958 51 115 5.0 6.0 0.00 0.00 0.00 95 1015.4
20260505172518 0 0.0 0.0 0.00 0.00 0.00
20260505172457 50 109 7.0 8.0 0.00 0.00 0.00 95 1015.4
20260505172015 0 0.0 0.0 0.00 0.00 0.00
20260505171957 50 108 5.0 7.0 0.00 0.00 0.00 96 1015.2
20260505171517 0 0.0 0.0 0.00 0.00 0.00
20260505171458 50 114 6.0 7.0 0.00 0.00 0.00 96 1015.2
20260505170958 50 123 5.0 7.0 0.00 0.00 0.00 96 1015.3
20260505170516 0 0.0 0.0 0.00 0.00 0.00
20260505170457 50 112 5.0 7.0 0.00 0.00 0.00 96 1015.2
20260505170017 0 0.0 0.0 0.00 0.00 0.00
20260505165957 50 113 6.0 7.0 0.00 0.00 0.00 96 1015.2
20260505165458 50 118 5.0 6.0 0.00 0.00 0.00 96 1015.2
20260505165014 0 0.0 0.0 0.00 0.00 0.00
20260505164957 50 121 5.0 6.0 0.00 0.00 0.00 96 1015.2
20260505164514 0 0.0 0.0 0.00 0.00 0.00
20260505164459 50 131 4.0 5.0 0.00 0.00 0.00 97 1015.2
20260505164015 0 0.0 0.0 0.00 0.00 0.00
20260505163958 50 140 5.0 7.0 0.00 0.00 0.00 97 1015.2
20260505163515 0 0.0 0.0 0.00 0.00 0.00
20260505163458 49 131 3.0 4.0 0.00 0.00 0.00 97 1015.3
20260505163014 0 0.0 0.0 0.00 0.00 0.00
20260505162958 49 121 5.0 6.0 0.00 0.00 0.00 97 1015.3
20260505162510 0 0.0 0.0 0.00 0.00 0.00
20260505162457 49 126 5.0 6.0 0.00 0.00 0.00 97 1015.2
20260505162009 0 0.0 0.0 0.00 0.00 0.00
20260505161958 49 116 5.0 7.0 0.00 0.00 0.00 97 1015.2
20260505161505 0 0.0 0.0 0.00 0.00 0.00
20260505161459 49 126 4.0 5.0 0.00 0.00 0.00 97 1015.2
20260505161005 0 0.0 0.0 0.00 0.00 0.00
20260505160529 49 125 4.0 6.0 0.00 0.00 0.00 97 1015.2
20260505160504 0 0.0 0.0 0.00 0.00 0.00
20260505153006 0 0.0 0.0 0.00 0.00 0.00
20260505152958 49 116 6.0 7.0 0.00 0.00 0.00 97 1014.9
20260505152459 0 0.0 0.0 0.00 0.00 0.00
20260505152457 49 119 6.0 7.0 0.00 0.00 0.00 97 1014.9
20260505152000 49 113 7.0 8.0 0.00 0.00 0.00 97 1014.8
20260505151953 0 0.0 0.0 0.00 0.00 0.00
20260505151458 49 112 7.0 9.0 0.00 0.00 0.00 97 1014.7
20260505151447 0 0.0 0.0 0.00 0.00 0.00
20260505150958 49 114 7.0 8.0 0.00 0.00 0.00 96 1014.7
20260505150948 0 0.0 0.0 0.00 0.00 0.00
20260505150458 49 114 6.0 7.0 0.00 0.00 0.00 96 1014.7
20260505150447 0 0.0 0.0 0.00 0.00 0.00
20260505140458 49 112 8.0 10.0 0.00 0.00 0.00 94 1013.9
20260505140443 0 0.0 0.0 0.00 0.00 0.00
20260505124957 50 115 6.0 9.0 0.00 0.00 0.00 87 1013.2
20260505124942 0 0.0 0.0 0.00 0.00 0.00
20260505124457 50 127 7.0 9.0 0.00 0.00 0.00 87 1013.1
20260505123957 51 120 7.0 8.0 0.00 0.00 0.00 86 1013.1
20260505123941 0 0.0 0.0 0.00 0.00 0.00
20260505123457 51 114 7.0 9.0 0.00 0.00 0.00 86 1012.8
20260505123442 0 0.0 0.0 0.00 0.00 0.00
20260505122958 51 117 7.0 10.0 0.00 0.00 0.00 85 1012.8
20260505122457 52 120 7.0 9.0 0.00 0.00 0.00 84 1012.8
20260505122442 0 0.0 0.0 0.00 0.00 0.00
20260505121958 52 125 6.0 8.0 0.00 0.00 0.00 84 1012.7
20260505121942 0 0.0 0.0 0.00 0.00 0.00
20260505121457 52 124 6.0 8.0 0.00 0.00 0.00 83 1012.7
20260505121442 0 0.0 0.0 0.00 0.00 0.00
20260505120958 53 118 7.0 8.0 0.00 0.00 0.00 83 1012.6
20260505120942 0 0.0 0.0 0.00 0.00 0.00
20260505120457 53 110 7.0 9.0 0.00 0.00 0.00 83 1012.6
20260505120440 0 0.0 0.0 0.00 0.00 0.00
20260505115958 53 132 7.0 9.0 0.00 0.00 0.00 82 1012.6
20260505115939 0 0.0 0.0 0.00 0.00 0.00
20260505115458 53 111 9.0 11.0 0.00 0.00 0.00 82 1012.5
20260505115440 0 0.0 0.0 0.00 0.00 0.00
20260505114957 53 104 9.0 10.0 0.00 0.00 0.00 82 1012.5
20260505114940 0 0.0 0.0 0.00 0.00 0.00
20260505114459 53 111 9.0 10.0 0.00 0.00 0.00 81 1012.5
20260505113958 53 115 8.0 10.0 0.00 0.00 0.00 81 1012.4
20260505113939 0 0.0 0.0 0.00 0.00 0.00
20260505113457 53 99 9.0 10.0 0.00 0.00 0.00 81 1012.3
20260505113440 0 0.0 0.0 0.00 0.00 0.00
20260505112957 54 108 9.0 12.0 0.00 0.00 0.00 80 1012.3
20260505112940 0 0.0 0.0 0.00 0.00 0.00
20260505112457 54 107 9.0 11.0 0.00 0.00 0.00 80 1012.3
20260505111957 54 100 10.0 12.0 0.00 0.00 0.00 80 1012.2
20260505111459 54 114 8.0 10.0 0.00 0.00 0.00 80 1012.1
20260505111439 0 0.0 0.0 0.00 0.00 0.00
20260505111001 54 111 8.0 10.0 0.00 0.00 0.00 79 1012.0
20260505110940 0 0.0 0.0 0.00 0.00 0.00
20260505110457 55 106 9.0 10.0 0.00 0.00 0.00 79 1012.0
20260505110441 0 0.0 0.0 0.00 0.00 0.00
20260505101957 55 108 8.0 11.0 0.00 0.00 0.00 72 1011.9
20260505101938 0 0.0 0.0 0.00 0.00 0.00
20260505101458 55 112 8.0 10.0 0.00 0.00 0.00 72 1011.9
20260505101438 0 0.0 0.0 0.00 0.00 0.00
20260505100957 55 119 8.0 12.0 0.00 0.00 0.00 71 1011.8
20260505100459 55 99 10.0 13.0 0.00 0.00 0.00 71 1011.7
20260505100435 0 0.0 0.0 0.00 0.00 0.00
20260505095957 55 88 12.0 15.0 0.00 0.00 0.00 71 1011.6
20260505095932 0 0.0 0.0 0.00 0.00 0.00
20260505095457 55 111 8.0 11.0 0.00 0.00 0.00 72 1011.7
20260505095432 0 0.0 0.0 0.00 0.00 0.00
20260505094957 55 111 9.0 12.0 0.00 0.00 0.00 72 1011.6
20260505094933 0 0.0 0.0 0.00 0.00 0.00
20260505094457 55 95 10.0 13.0 0.00 0.00 0.00 71 1011.6
20260505093957 54 97 11.0 14.0 0.00 0.00 0.00 72 1011.5
20260505093457 53 134 6.0 8.0 0.00 0.00 0.00 76 1011.6
20260505092957 53 122 7.0 9.0 0.00 0.00 0.00 75 1011.6
20260505092932 0 0.0 0.0 0.00 0.00 0.00
20260505092457 53 106 10.0 12.0 0.00 0.00 0.00 74 1011.4
20260505092433 0 0.0 0.0 0.00 0.00 0.00
20260505091957 52 112 8.0 10.0 0.00 0.00 0.00 79 1011.4
20260505091933 0 0.0 0.0 0.00 0.00 0.00
20260505091457 52 111 8.0 9.0 0.00 0.00 0.00 79 1011.3
20260505090958 51 107 8.0 9.0 0.00 0.00 0.00 80 1011.3
20260505090933 0 0.0 0.0 0.00 0.00 0.00
20260505090458 51 108 8.0 9.0 0.00 0.00 0.00 80 1011.3
20260505085957 52 111 8.0 10.0 0.00 0.00 0.00 80 1011.3
20260505085930 0 0.0 0.0 0.00 0.00 0.00
20260505085457 52 107 8.0 9.0 0.00 0.00 0.00 79 1011.2
20260505085430 0 0.0 0.0 0.00 0.00 0.00
20260505084957 52 105 9.0 10.0 0.00 0.00 0.00 79 1011.0
20260505084930 0 0.0 0.0 0.00 0.00 0.00
20260505084457 53 102 9.0 12.0 0.00 0.00 0.00 77 1011.0
20260505084430 0 0.0 0.0 0.00 0.00 0.00
20260505083957 53 109 7.0 9.0 0.00 0.00 0.00 77 1010.9
20260505083930 0 0.0 0.0 0.00 0.00 0.00
20260505083457 54 109 8.0 9.0 0.00 0.00 0.00 76 1010.9
20260505083431 0 0.0 0.0 0.00 0.00 0.00
20260505082957 56 108 8.0 9.0 0.00 0.00 0.00 74 1010.9
20260505082931 0 0.0 0.0 0.00 0.00 0.00
20260505082457 57 114 6.0 7.0 0.00 0.00 0.00 68 1010.9
20260505082430 0 0.0 0.0 0.00 0.00 0.00
20260505081957 54 100 7.0 8.0 0.00 0.00 0.00 73 1010.8
20260505081931 0 0.0 0.0 0.00 0.00 0.00
20260505081457 54 104 7.0 8.0 0.00 0.00 0.00 75 1010.7
20260505081436 0 0.0 0.0 0.00 0.00 0.00
20260505080957 55 108 8.0 9.0 0.00 0.00 0.00 73 1010.6
20260505080931 0 0.0 0.0 0.00 0.00 0.00
20260505080457 55 101 7.0 8.0 0.00 0.00 0.00 73 1010.6
20260505080431 0 0.0 0.0 0.00 0.00 0.00
20260505075957 55 105 7.0 8.0 0.00 0.00 0.00 74 1010.5
20260505075928 0 0.0 0.0 0.00 0.00 0.00
20260505075457 56 107 7.0 9.0 0.00 0.00 0.00 73 1010.5
20260505074957 56 106 7.0 8.0 0.00 0.00 0.00 71 1010.5
20260505074928 0 0.0 0.0 0.00 0.00 0.00
20260505074457 56 104 7.0 8.0 0.00 0.00 0.00 71 1010.5
20260505074429 0 0.0 0.0 0.00 0.00 0.00
20260505073957 56 107 7.0 9.0 0.00 0.00 0.00 71 1010.4
20260505073929 0 0.0 0.0 0.00 0.00 0.00
20260505073457 56 102 7.0 8.0 0.00 0.00 0.00 71 1010.3
20260505073429 0 0.0 0.0 0.00 0.00 0.00
20260505072957 56 101 7.0 9.0 0.00 0.00 0.00 71 1010.3
20260505072929 0 0.0 0.0 0.00 0.00 0.00
20260505072458 57 109 8.0 9.0 0.00 0.00 0.00 71 1010.2
20260505072429 0 0.0 0.0 0.00 0.00 0.00
20260505071957 57 102 7.0 9.0 0.00 0.00 0.00 70 1010.2
20260505071929 0 0.0 0.0 0.00 0.00 0.00
20260505071457 58 111 6.0 7.0 0.00 0.00 0.00 69 1010.1
20260505070957 60 106 6.0 7.0 0.00 0.00 0.00 67 1010.1
20260505070928 0 0.0 0.0 0.00 0.00 0.00
20260505070457 61 99 6.0 7.0 0.00 0.00 0.00 64 1010.0
20260505070426 0 0.0 0.0 0.00 0.00 0.00
20260505065958 64 104 5.0 6.0 0.00 0.00 0.00 62 1010.0
20260505065927 0 0.0 0.0 0.00 0.00 0.00
20260505065457 66 99 5.0 6.0 0.00 0.00 0.00 55 1010.0
20260505065427 0 0.0 0.0 0.00 0.00 0.00
20260505064957 66 93 5.0 6.0 0.00 0.00 0.00 57 1010.0
20260505064458 67 94 4.0 5.0 0.00 0.00 0.00 55 1009.9
20260505063957 68 103 4.0 5.0 0.00 0.00 0.00 53 1009.9
20260505063457 68 89 5.0 6.0 0.00 0.00 0.00 52 1009.8
20260505062957 68 94 5.0 6.0 0.00 0.00 0.00 53 1009.8
20260505062927 0 0.0 0.0 0.00 0.00 0.00
20260505062457 69 82 4.0 4.0 0.00 0.00 0.00 53 1009.8
20260505062427 0 0.0 0.0 0.00 0.00 0.00
20260505061958 68 72 4.0 6.0 0.00 0.00 0.00 51 1009.8
20260505061927 0 0.0 0.0 0.00 0.00 0.00
20260505061457 67 87 4.0 6.0 0.00 0.00 0.00 54 1009.8
20260505061427 0 0.0 0.0 0.00 0.00 0.00
20260505060957 67 80 4.0 5.0 0.00 0.00 0.00 53 1009.8
20260505060925 0 0.0 0.0 0.00 0.00 0.00
20260505060457 66 76 5.0 6.0 0.00 0.00 0.00 52 1009.8
20260505060426 0 0.0 0.0 0.00 0.00 0.00
20260505055959 67 103 6.0 7.0 0.00 0.00 0.00 52 1009.7
20260505055925 0 0.0 0.0 0.00 0.00 0.00
20260505055457 67 100 5.0 6.0 0.00 0.00 0.00 52 1009.7
20260505055425 0 0.0 0.0 0.00 0.00 0.00
20260505054957 68 99 5.0 6.0 0.00 0.00 0.00 52 1009.5
20260505054925 0 0.0 0.0 0.00 0.00 0.00
20260505054459 69 100 5.0 6.0 0.00 0.00 0.00 49 1009.5
20260505054426 0 0.0 0.0 0.00 0.00 0.00
20260505053957 70 84 5.0 5.0 0.00 0.00 0.00 47 1009.5
20260505053457 70 75 4.0 4.0 0.00 0.00 0.00 47 1009.5
20260505053426 0 0.0 0.0 0.00 0.00 0.00
20260505052957 70 81 4.0 5.0 0.00 0.00 0.00 46 1009.5
20260505052926 0 0.0 0.0 0.00 0.00 0.00
20260505052457 70 76 4.0 5.0 0.00 0.00 0.00 45 1009.5
20260505052426 0 0.0 0.0 0.00 0.00 0.00
20260505051957 69 72 4.0 5.0 0.00 0.00 0.00 46 1009.4
20260505051457 69 100 5.0 7.0 0.00 0.00 0.00 54 1009.4
20260505051427 0 0.0 0.0 0.00 0.00 0.00
20260505050957 70 62 3.0 4.0 0.00 0.00 0.00 49 1009.4
20260505050925 0 0.0 0.0 0.00 0.00 0.00
20260505050457 70 59 3.0 4.0 0.00 0.00 0.00 46 1009.3
20260505041459 71 49 3.0 5.0 0.00 0.00 0.00 45 1009.1
20260505041423 0 0.0 0.0 0.00 0.00 0.00
20260505040957 72 45 4.0 6.0 0.00 0.00 0.00 45 1009.1
20260505040923 0 0.0 0.0 0.00 0.00 0.00
20260505040457 73 55 4.0 5.0 0.00 0.00 0.00 44 1009.0
20260505040424 0 0.0 0.0 0.00 0.00 0.00
20260505035958 74 74 3.0 4.0 0.00 0.00 0.00 43 1009.0
20260505035457 74 80 3.0 4.0 0.00 0.00 0.00 42 1009.0
20260505035423 0 0.0 0.0 0.00 0.00 0.00